Regional Weather Roundup
Issued by NWS

Home | Current Version | Previous Version | Graphics & Text | Print | Product List | Glossary On
Versions: 1 2 3 4 5 6 7 8 9 10 11 12 13 14 15 16 17 18 19 20 21 22 23 24 25 26 27 28 29 30 31 32 33 34 35 36 37 38 39 40 41 42 43 44 45 46 47 48 49 50
000
ASUS45 KBOU 282210
RWRCO

WEATHER ROUNDUP FOR COLORADO
NATIONAL WEATHER SERVICE PUEBLO CO
400 PM MDT TUE JUL 28 2015

NOTE: "FAIR" INDICATES FEW OR NO CLOUDS BELOW 12000 FEET WITH NO
SIGNIFICANT WEATHER AND/OR OBSTRUCTIONS TO VISIBILITY.

COZ001>005-013-030-031-282300-
...NORTHWEST COLORADO...

CITY           SKY/WX    TMP DP  RH WIND       PRES   REMARKS
CRAIG          SUNNY     81  31  16 NW13      30.24F
HAYDEN         SUNNY     75  28  17 W16       30.26F
MEEKER         SUNNY     81  29  15 W7G20     30.24F
MOUNT WERNER   NOT AVBL
STEAMBOAT SPGS FAIR      74  31  20 SW8G17    30.28F
WALDEN         FAIR      72  23  16 W16G25    30.35F
$$

COZ006>008-011-282300-
...WEST CENTRAL VALLEYS...

CITY           SKY/WX    TMP DP  RH WIND       PRES   REMARKS
GRAND JUNCTION SUNNY     88  29  12 W8G17     30.09F
MONTROSE       SUNNY     88  34  14 N10       30.16F
EAGLE          MOSUNNY   82  30  15 W15G22    30.22F
RIFLE          SUNNY     87  25  10 NW8       30.13F
DELTA          NOT AVBL
NUCLA          FAIR      88  27  11 W16       30.20F
$$

COZ017>023-064>068-282300-
...SOUTHWEST COLORADO...

CITY           SKY/WX    TMP DP  RH WIND       PRES   REMARKS
DURANGO        MOSUNNY   85  29  13 W12       30.20F
CORTEZ         SUNNY     88  25  10 NW10G22   30.16F
PAGOSA SPRINGS FAIR      82  24  11 W12G18    30.28F
TELLURIDE      MOSUNNY   74  32  21 W8G22     30.43S
WOLF CREEK PAS NOT AVBL
$$

COZ009-010-012-014-032>034-037-058>063-282300-
...CENTRAL COLORADO...

CITY           SKY/WX    TMP DP  RH WIND       PRES   REMARKS
ASPEN          SUNNY     78  35  21 NE5       30.30F
BUENA VISTA    FAIR      83  21  10 W16G25    30.26S
COPPER MTN     SUNNY     64  19  17 W16G35    30.64S
BERTHOUD PASS  FAIR      54  43  66 MISG      30.69S
COTTONWOOD PAS SUNNY     77  12   8 SW16G22   30.43S
GUNNISON       MOSUNNY   81  25  12 W14G21    30.30S
KREMMLING      SUNNY     81  21  11 W10G23    30.28S
LEADVILLE      SUNNY     71  25  17 NW14G24   30.43F
MONARCH PASS   MOSUNNY   61  27  27 W28G41    30.72S
SALIDA         FAIR      86  26  11 W13G20    30.30F
NIWOT RIDGE    NOT AVBL
SUNLIGHT       SUNNY     68  32  26 SW3       30.57S
WILKERSON PASS SUNNY     72  14  11 SW7G23    30.58S
$$

COZ069>075-282300-
...SAN LUIS VALLEY/SANGRE DE CRISTO MOUNTAINS...

CITY           SKY/WX    TMP DP  RH WIND       PRES   REMARKS
ALAMOSA        MOSUNNY   83  36  18 W16       30.23F
LA VETA PASS   CLOUDY    63  41  45 MISG      30.49F
SAGUACHE       MOSUNNY   79  37  22 S3        30.28F
$$

COZ035-036-038>040-282300-
...NORTHERN COLORADO FRONT RANGE...

CITY           SKY/WX    TMP DP  RH WIND       PRES   REMARKS
DENVER INTL AP MOSUNNY   85  40  20 E17G28    30.13F
DMNS CITY PARK NOT AVBL
AURORA         MOSUNNY   83  45  25 E20G25    30.14F
FRONT RANGE AP NOT AVBL
ERIE MUNI ARPT FAIR      87  37  17 E13G21    30.12S
BOULDER MUN AP FAIR      86  41  20 SE8       30.13F
CENTENNIAL     MOSUNNY   85  39  19 E14       30.14F
BROOMFIELD     MOSUNNY   86  41  20 E10G20    30.15F
LOVELAND       SUNNY     86  45  23 SE7       30.11S
LONGMONT       FAIR      89  39  17 E10       30.13F
$$

COZ041-046-047-076>085-087-088-282300-
...PIKES PEAK/PALMER DIVIDE AND SOUTHERN FOOTHILLS...

CITY           SKY/WX    TMP DP  RH WIND       PRES   REMARKS
COLO. SPRINGS  MOSUNNY   84  35  17 S17G26    30.18F
A. F. ACADEMY  SUNNY     82  34  18 SE20G29   30.18F
ELLICOTT       FAIR     N/A N/A N/A SE15G23   30.18F
FALCON         FAIR      79  37  21 SE16G22   30.24F
FORT CARSON    SUNNY     84  39  20 SE13      30.15F
LIMON          SUNNY     81  41  24 SE14      30.17F
MONUMENT HILL  SUNNY     77  37  24 SE18G28   30.24F
TRINIDAD       MOSUNNY   84  41  21 SE13G18   30.14F
$$

COZ042>045-048>051-090-091-282300-
...NORTHEAST COLORADO...

CITY           SKY/WX    TMP DP  RH WIND       PRES   REMARKS
GREELEY ARPT   SUNNY     86  43  22 E13       30.12F
AKRON          SUNNY     83  33  16 NE12G18   30.14F
BURLINGTON     SUNNY     82  41  23 NE14      30.12S
WRAY           FAIR      86  38  18 N12G17    30.10S
STERLING       NOT AVBL
HOLYOKE        FAIR      86  34  15 N9        30.10S
FORT MORGAN    FAIR      84  37  18 E13G18    30.13S
$$

COZ086-089-092>099-282300-
...SOUTHEAST COLORADO...

CITY           SKY/WX    TMP DP  RH WIND       PRES   REMARKS
PUEBLO         SUNNY     92  35  13 S16G23    30.06F
LA JUNTA       SUNNY     89  40  17 E18       30.06F
LAMAR          MOSUNNY   89  40  17 E14       30.03F
SPRINGFIELD      N/A     85  43  22 NE16G25   30.08F
$$




USA.gov is the U.S. government's official web portal to all federal, state and local government web resources and services.